Regional Weather Roundup
Issued by NWS Green Bay, WI

Home | Current Version | Previous Version | Graphics & Text | Print | Product List | Glossary Off
Versions: 1 2 3 4 5 6 7 8 9 10 11 12 13 14 15 16 17 18 19 20 21 22 23 24 25 26 27 28 29 30 31 32 33 34 35 36 37 38 39 40 41 42 43 44 45 46 47 48 49 50

000
ASUS43 KGRB 121200
RWRGRB

NORTH-CENTRAL AND NORTHEAST WISCONSIN REGIONAL WEATHER ROUNDUP
NATIONAL WEATHER SERVICE GREEN BAY WI
600 AM CST TUE DEC 12 2017

WIZ005-009-010>012-018-019-121300-
NORTH CENTRAL WISCONSIN

CITY           SKY/WX    TMP DP  RH WIND       PRES   REMARKS
IRONWOOD       FLURRIES  11   5  77 NW12      30.06S WCI  -3
MANITOWISH WTR NOT AVBL
ARBOR VITAE    NOT AVBL
EAGLE RIVER    NOT AVBL
LAND O LAKES   NOT AVBL
RHINELANDER    CLOUDY    10   5  80 NW9       30.00R WCI  -3
PHILLIPS       NOT AVBL
ANTIGO         NOT AVBL
TOMAHAWK       NOT AVBL
MERRILL        NOT AVBL
$$

WIZ013-073-121300-
NORTHEAST WISCONSIN

CITY           SKY/WX    TMP DP  RH WIND       PRES   REMARKS
IRON MOUNTAIN  CLOUDY    10   2  69 NW17G26   29.98S WCI  -8
MARINETTE      CLOUDY    12   1  61 N16G23    30.05R WCI  -5
$$

WIZ017-030-035>037-045-121300-
CENTRAL WISCONSIN

CITY           SKY/WX    TMP DP  RH WIND       PRES   REMARKS
MEDFORD        NOT AVBL
WAUSAU         CLOUDY    12   2  64 NW18G25   30.04S WCI  -6
MOSINEE        CLOUDY    10   3  72 NW15      30.06S WCI  -6
MARSHFIELD     CLOUDY    11   3  70 NW17      30.06S WCI  -6
WISC RAPIDS    CLOUDY    13   4  67 NW12      30.10R WCI  -1
STEVENS POINT  NOT AVBL
WAUPACA        NOT AVBL
SHAWANO        NOT AVBL
CLINTONVILLE   NOT AVBL
WAUTOMA        MOCLDY    13   2  61 NW12G17   30.10R WCI  -1
$$

WIZ038-039-048-051-121300-
FOX VALLEY

CITY           SKY/WX    TMP DP  RH WIND       PRES   REMARKS
NWS GREEN BAY  CLOUDY    16   5  62 NW12      30.04R WCI   3
APPLETON       MOCLDY    16   1  53 NW16      30.02S WCI   0
OSHKOSH        CLOUDY    17   4  56 NW20G25   30.05R WCI   1
FOND DU LAC    CLOUDY    17   3  54 NW18      30.05R WCI   1
$$

WIZ022-050-052-121300-
EAST CENTRAL WISCONSIN

CITY           SKY/WX    TMP DP  RH WIND       PRES   REMARKS
EPHRAIM        NOT AVBL
WASHINGTON ISL NOT AVBL
STURGEON BAY   PTCLDY    12   1  61 NW31G39   30.00R WCI -10
MANITOWOC      CLOUDY    16   5  62 NW13      30.03R WCI   2
SHEBOYGAN      PTCLDY    14   3  61 N18G26    30.03R WCI  -3
$$

LMZ563-521-522-541>543-121300-
LAKESHORE

STATION/POSITION TIME  TEMP    WIND        PRES    VSBY  WAVE
                       AIR SEA DIR/SP/G                  HT/PER
                 (UTC) (F)     (DEG/KT/KT) (MB)    (MI)  (FT/S)
SHEBOYGAN LKSHOR 1100   18     320/ 18/ 21 1017.2R
KEWAUNEE LKSHORE 1130   15     340/ 15/ 23 1015.8R
NORTHPORT PIER   1132   17     320/ 26     1015.2R
MENOMINEE LKSHOR 1130   15     320/ 20/ 25 1016.6R
$$




USA.gov is the U.S. government's official web portal to all federal, state and local government web resources and services.